Regional Weather Roundup
Issued by NWS Cleveland, OH

Home | Current Version | Previous Version | Text Only | Print | Product List | Glossary On
Versions: 1 2 3 4 5 6 7 8 9 10 11 12 13 14 15 16 17 18 19 20 21 22 23 24 25 26 27 28 29 30 31 32 33 34 35 36 37 38 39 40 41 42 43 44 45 46 47 48 49 50
000
ASUS41 KCLE 132012
RWRCLE
OHIO REGIONAL WEATHER ROUNDUP
NATIONAL WEATHER SERVICE WILMINGTON, OH
300 PM EST SAT FEB 13 2016

NOTE: "FAIR" INDICATES FEW OR NO CLOUDS BELOW 12,000 FEET WITH NO
SIGNIFICANT WEATHER AND/OR OBSTRUCTIONS TO VISIBILITY.

OHZ001>008-015>018-024>027-034-035-043-044-132100-
   NORTHWEST OHIO

CITY           SKY/WX    TMP DP  RH WIND       PRES   REMARKS
DEFIANCE       LGT SNOW  17  10  74 NW12      30.47S WCI   4
FINDLAY        LGT SNOW  15   6  67 W13       30.45S WCI   1
TOLEDO EXPRESS FLURRIES  15   6  67 W13       30.44F WCI   1
TOLEDO EXEC    LGT SNOW  16   6  65 W16       30.45F WCI   1
LIMA           LGT SNOW  14   7  73 W16       30.45S WCI  -2
$$

OHZ009>014-019>023-028>033-038-089-132100-
   NORTHEAST OHIO

CITY           SKY/WX    TMP DP  RH WIND       PRES   REMARKS
CLE-HOPKINS    LGT SNOW  11   5  77 NW13      30.45S VSB 3/4 WCI  -4
CLE-LAKEFRONT  FLURRIES  14   3  61 W16       30.43R WCI  -2
CUY CO. ARPT   SNOWSHWR  12   3  67 NW16G25   30.40S WCI  -4
LORAIN-ELYRIA  FLURRIES  12  -1  56 NW15      30.43F WCI  -4
ASHTABULA      FLURRIES   9  -5  53 NW17G29   30.37S WCI  -9
AKRON-CANTON   LGT SNOW  10   1  67 W17       30.37S WCI  -8
WOOSTER        FAIR      11  -2  56 W16       30.40S WCI  -6
MANSFIELD      CLOUDY    14   0  53 W9G24     30.38F WCI   2
YOUNGSTOWN     LGT SNOW   9   0  67 NW17G26   30.34S BLWGSNOWWCI  -9
$$

OHZ042-051>053-060>062-070>072-077>081-132100-
  SOUTHWEST OHIO

CITY           SKY/WX    TMP DP  RH WIND       PRES   REMARKS
CINC-COVINGTON PTSUNNY   18   2  49 NW13      30.50F WCI   5
CINC-LUNKEN    FAIR      19   1  45 NW8       30.54F WCI   9
HAMILTON       FAIR      19   2  47 NW14      30.54F WCI   6
DAYTON         FLURRIES  14   4  64 NW15      30.49S WCI  -1
WRIGHT-PAT AFB CLOUDY    16   0  50 W13       30.49S WCI   2
DAYTON GENERAL CLOUDY    15   0  51 NW10      30.48F WCI   2
WILMINGTON     FAIR      15  -3  44 W10G20    30.47F WCI   2
$$

OHZ036-037-039>041-045>050-054>059-063>069-073>076-082>088-132100-
  CENTRAL AND SOUTHEAST OHIO

CITY           SKY/WX    TMP DP  RH WIND       PRES   REMARKS
COLUMBUS       CLOUDY    14  -2  49 NW12      30.46F WCI   0
OSU AIRPORT    CLOUDY    14   2  58 W13       30.46R WCI   0
BOLTON FIELD   CLOUDY    12   0  57 NW9G17    30.48S WCI   0
RICKENBACK AFB CLOUDY    14   0  52 W13G20    30.48S WCI   0
NEWARK         CLOUDY    15   0  51 NW9       30.44F WCI   3
MARION         LGT SNOW  14   1  56 NW13      30.44S WCI   0
LANCASTER      CLOUDY    14  -2  49 W12G18    30.47S WCI   0
ZANESVILLE     CLOUDY    15  -3  44 NW12      30.44S WCI   2
NEW PHILLY     CLOUDY    11  -2  56 NW10      30.42F WCI  -3
$$



USA.gov is the U.S. government's official web portal to all federal, state and local government web resources and services.